Dewpoint
64 64 65 65 66 66 66 66 66 67 66 66 65 65 64 64 64 63 63 63 63 63 63 62 63 63 63 63 62 61 60 60 59 58 57 57 56 56 57 57 59 54 53 52 51 51 50 48 47 49 50 52 53 53 53 53 52 51 51 51 48 48 48
65 65 65 65 65 66 66 66 66 66 66 66 65 65 64 64 64 63 63 62 63 63 64 62 63 64 63 62 62 61 60 60 59 59 58 57 58 57 56 56 56 55 54 53 52 52 51 49 48 47 48 49 51 51 52 52 52 52 51 50 48 49 50
65 65 65 65 65 66 66 66 66 66 66 66 65 65 64 64 64 64 63 62 63 63 64 62 63 63 63 63 62 61 60 59 60 60 58 58 58 58 57 57 57 55 55 54 52 52 50 51 52 46 48 47 47 50 51 51 51 50 49 50 50 50 49
65 65 64 65 65 65 65 65 66 66 66 66 65 65 64 64 64 64 63 62 63 64 64 63 63 63 63 63 62 61 60 60 60 60 59 59 59 58 57 58 57 56 56 55 54 52 53 51 50 49 49 47 46 47 50 49 50 48 48 50 49 49 50
65 65 64 64 65 65 65 65 66 66 66 66 65 65 64 64 63 64 64 63 63 63 63 63 63 63 64 64 63 62 61 60 60 60 60 59 58 58 58 58 59 58 58 57 56 54 53 53 53 52 50 48 47 46 49 51 49 48 47 47 47 47 48
65 65 65 65 65 65 65 65 65 65 65 65 65 65 64 64 63 64 63 63 63 63 64 63 63 63 63 64 63 62 61 60 60 60 59 59 59 58 58 59 60 60 58 58 57 55 55 54 53 52 49 49 50 49 48 48 48 48 48 46 46 46 46
65 65 65 65 65 65 65 65 65 65 65 65 65 65 65 64 64 64 64 63 63 63 63 64 63 63 64 63 63 63 62 61 61 60 60 60 59 59 59 59 59 60 60 59 57 56 55 54 52 52 51 48 48 47 47 47 47 45 47 47 46 45 45
65 65 65 65 65 65 66 65 65 65 65 65 65 65 65 64 64 64 64 63 63 63 64 64 64 64 64 64 63 63 63 62 61 61 60 60 59 59 59 59 60 60 60 60 58 57 56 55 54 53 52 50 51 48 49 47 47 46 46 47 46 45 44
66 66 65 65 65 65 65 66 65 65 65 65 65 65 65 64 64 64 64 63 63 64 64 64 64 64 64 64 63 63 63 63 62 61 61 60 60 60 60 60 60 59 60 61 59 58 56 56 56 54 53 53 53 52 49 48 48 46 46 45 46 45 44
66 65 65 65 65 65 65 66 66 66 66 65 65 65 65 64 64 64 64 64 64 64 64 64 64 64 64 64 63 63 63 63 63 62 61 61 61 60 61 60 60 60 60 61 61 60 58 57 57 55 54 53 54 54 52 50 49 48 48 45 45 46 44
65 65 65 65 65 65 65 65 65 65 65 65 65 65 64 64 64 65 64 64 64 64 64 64 64 63 64 64 64 64 64 64 63 63 62 61 61 61 61 60 60 60 61 60 60 61 60 59 59 56 55 54 56 55 54 52 53 50 50 49 46 45 44
65 65 65 65 65 64 64 65 65 65 65 65 64 64 64 64 64 64 64 64 64 64 64 64 64 64 63 63 63 63 64 64 63 63 63 62 62 61 61 60 60 60 61 61 61 61 61 60 58 58 56 55 56 56 56 54 53 54 50 51 50 47 45
63 65 65 64 64 64 64 64 64 64 65 65 64 64 64 64 64 64 64 64 64 64 64 64 64 64 64 63 63 63 63 63 63 63 63 63 63 62 61 61 60 60 61 61 61 61 61 61 60 59 57 56 55 56 58 55 53 54 52 52 51 49 45
63 64 64 64 64 64 64 64 64 65 64 64 64 64 63 63 63 64 64 64 64 64 65 65 65 64 64 63 63 63 63 63 63 63 63 63 63 62 62 61 61 61 61 61 61 61 60 60 61 60 59 57 55 55 57 55 54 54 54 50 51 50 47
63 64 63 64 63 63 64 64 64 65 64 64 64 63 63 63 63 64 64 64 64 64 65 65 65 65 64 64 63 63 63 63 63 63 63 62 63 63 62 62 62 61 61 61 61 60 60 60 60 60 60 58 57 55 56 56 54 54 55 49 48 45 45
61 61 61 62 63 63 64 64 64 65 65 64 64 64 63 63 63 63 64 64 64 64 65 65 65 65 65 64 64 63 63 63 63 63 62 63 63 63 62 62 62 62 61 61 61 61 61 60 60 60 60 59 59 58 55 56 55 54 54 53 48 45 44
61 61 61 61 61 63 64 64 64 64 65 65 64 64 64 63 63 63 64 64 64 64 65 65 65 65 65 64 64 64 64 63 63 63 63 63 63 63 62 62 62 62 61 61 61 61 61 61 60 60 60 60 60 59 56 55 55 56 54 54 47 43 44
62 61 61 61 61 62 62 63 64 64 64 65 64 64 63 63 63 63 64 64 64 65 65 65 65 65 65 65 65 64 64 64 64 63 63 63 63 62 63 62 62 62 61 61 61 61 60 60 60 60 60 60 59 59 58 55 54 54 53 53 51 44 45
61 61 61 61 61 62 62 63 64 64 64 64 65 64 64 63 63 63 63 64 64 65 65 65 65 65 65 65 65 65 65 64 64 64 63 63 63 63 62 62 62 62 61 61 61 61 61 60 60 60 60 60 59 59 58 57 56 54 53 53 53 47 44
61 61 61 61 62 63 64 64 64 64 64 64 64 64 64 64 63 63 64 64 64 65 65 65 65 65 65 65 65 65 65 64 64 64 64 64 63 63 63 63 62 62 61 61 61 61 61 61 60 60 60 60 60 59 58 57 56 55 53 52 47 47 45
62 63 62 62 63 64 64 64 64 64 64 64 64 64 64 64 64 64 64 64 64 65 65 65 65 65 65 65 65 65 65 64 64 64 64 64 64 63 63 63 63 62 62 62 62 62 61 61 61 60 60 60 60 59 58 56 55 54 52 50 49 44 43
63 63 63 63 64 64 65 64 64 64 64 64 64 64 65 65 64 64 64 64 64 64 65 65 65 65 65 65 65 65 65 64 64 64 64 64 64 63 63 63 63 62 62 61 59 59 59 60 61 60 60 60 59 59 58 56 54 52 50 49 46 44 42
63 63 63 63 64 64 64 64 64 64 64 64 64 65 65 65 65 64 64 64 64 64 65 65 62 59 60 64 65 65 65 65 64 64 64 63 63 63 63 63 63 61 60 59 57 55 54 54 57 60 60 59 59 58 57 55 53 51 49 47 46 43 42
62 62 62 62 62 62 62 62 62 62 62 62 62 62 62 62 63 64 64 64 64 64 64 64 57 52 53 56 64 65 65 65 64 64 64 63 63 63 63 63 63 62 60 59 58 53 52 51 52 53 53 54 57 58 56 55 53 51 50 49 47 44 44
61 61 62 62 62 62 62 62 62 61 61 61 61 62 62 62 63 63 63 64 64 64 64 59 53 51 51 51 57 64 65 65 64 64 64 64 63 63 62 62 62 62 62 61 61 59 55 51 50 50 49 49 49 50 51 54 53 51 51 51 48 46 45
61 61 62 62 62 62 61 61 61 61 61 61 62 62 62 63 63 63 63 63 63 63 64 57 50 50 50 50 51 59 65 65 64 64 64 64 64 63 62 61 61 61 61 60 60 60 59 57 51 49 50 49 49 47 45 46 48 53 52 52 50 49 46
61 61 61 61 61 61 61 61 62 62 62 62 62 62 62 62 63 63 63 64 63 63 64 58 49 49 49 49 49 54 65 65 64 64 64 64 64 63 62 61 61 60 60 60 60 60 59 58 56 53 53 53 52 52 47 44 44 46 49 52 52 51 50
60 60 61 61 61 61 61 61 61 61 61 62 61 62 62 62 62 62 62 63 63 63 63 54 49 47 47 48 48 51 64 65 64 64 64 64 64 63 62 61 61 61 60 59 59 58 59 58 56 55 54 53 53 53 52 51 50 50 51 52 52 53 52
60 60 60 60 60 61 61 61 61 61 61 61 62 62 62 62 62 62 62 63 63 63 63 53 48 47 48 48 48 55 63 65 64 64 64 64 64 63 63 62 61 61 60 59 56 51 54 57 56 55 54 53 53 52 52 52 47 46 51 52 52 52 51
59 59 60 60 60 60 61 61 61 61 61 61 61 61 62 62 62 62 62 62 63 63 63 55 49 48 48 48 49 58 63 64 64 64 64 64 63 63 62 61 61 60 60 59 53 47 48 52 56 55 54 53 52 51 50 49 44 42 42 43 44 44 43
58 59 60 60 60 60 61 61 61 60 61 61 61 61 62 62 62 62 62 62 62 62 62 58 50 50 48 47 51 60 62 64 64 64 64 64 63 62 62 59 60 60 59 59 49 46 46 51 55 54 53 52 50 49 49 47 46 45 41 41 41 41 41
59 58 59 59 60 60 60 60 60 60 61 61 61 61 61 61 61 62 62 62 60 61 62 59 51 50 47 46 51 60 62 63 64 64 64 63 62 62 61 59 57 58 58 56 47 45 44 50 55 54 53 52 51 50 50 47 46 45 44 45 45 45 44
59 58 58 59 59 59 59 59 59 59 60 60 60 60 60 61 61 61 61 61 62 62 62 62 56 48 47 46 48 60 63 62 62 63 63 63 62 60 60 60 56 49 49 48 45 44 44 46 54 54 53 52 52 51 51 48 47 47 46 46 46 46 46
58 58 58 58 58 58 58 58 58 58 59 59 60 60 60 60 60 60 61 61 62 62 62 62 58 47 47 47 47 53 63 62 63 63 63 62 62 60 59 58 58 51 46 46 44 43 43 43 47 54 52 52 52 52 48 48 47 46 46 46 46 45 45
58 58 58 58 57 57 57 57 57 58 58 59 59 59 59 58 59 60 60 61 61 62 61 58 61 47 46 46 46 48 61 63 62 63 63 63 61 60 59 58 58 52 45 45 44 43 43 43 43 52 52 46 45 43 47 48 47 46 46 45 44 43 43
56 58 58 58 57 57 57 57 57 57 58 58 58 58 58 58 58 59 59 60 61 61 62 60 55 53 45 45 45 46 51 58 54 61 63 62 61 61 60 58 57 51 45 44 43 42 42 42 43 49 45 43 42 40 43 46 45 45 44 44 43 43 42
56 57 57 57 57 57 57 57 57 57 57 57 57 58 59 59 59 59 59 60 60 61 61 62 54 51 49 44 45 45 46 50 53 60 62 63 62 61 60 59 56 48 44 44 43 42 42 42 45 43 42 41 40 40 45 44 44 45 43 42 42 43 42